This demonstration page uses our WeatherBlox Daily Observations layout. Learn more.

Left ArrowRight Arrow

39.01783, -85.05884

Hourly Observations for February 12, 2016

Temp ( °F °C ) Dew Point ( °F °C ) Humidity (%) Winds ( mph kmh ) Pressure ( in mb ) Visibility ( mi km ) Precip ( " mm )
12:52 am 00:52 Mostly Cloudy 19 -7.2 8 -13.3 62 62 SSE 5 7 30.29 1026 10 16 0.00 0.00
1:52 am 01:52 Partly Cloudy 19 -7.2 7 -13.9 59 59 SE 3 6 30.27 1025 10 16 0.00 0.00
2:52 am 02:52 Cloudy 20 -6.7 8 -13.3 60 60 E 3 6 30.24 1024 10 16 0.00 0.00
3:52 am 03:52 Cloudy 20 -6.7 8 -13.3 60 60 ESE 3 6 30.23 1024 10 16 0.00 0.00
4:52 am 04:52 Cloudy 20 -6.7 9 -12.8 62 62 S 5 7 30.21 1023 10 16 0.00 0.00
5:52 am 05:52 Cloudy 20 -6.7 9 -12.8 62 62 E 3 6 30.22 1023 10 16 0.00 0.00
6:52 am 06:52 Cloudy 20 -6.7 10 -12.2 65 65 SSE 5 7 30.20 1023 10 16 0.00 0.00
7:52 am 07:52 Cloudy 20 -6.7 12 -11.1 71 71 SSW 3 6 30.20 1023 10 16 0.00 0.00
8:52 am 08:52 Cloudy 21 -6.1 10 -12.2 62 62 SSW 5 7 30.20 1023 10 16 0.00 0.00
9:52 am 09:52 Cloudy with Light Snow 23 -5 13 -10.6 65 65 SW 7 11 30.19 1023 9 14 0.00 0.03
10:24 am 10:24 Cloudy with Light Snow 23 -5 16 -9 74 74 SW 8 13 30.21 1023 3 4 0.00 0.00
10:52 am 10:52 Cloudy with Light Snow 23 -5 17 -8.3 78 78 SSW 8 13 30.18 1022 1 1 0.00 0.03
11:22 am 11:22 Cloudy with Light Snow 25 -4 18 -8 74 74 SSW 8 13 30.21 1023 3 4 0.00 0.00
11:41 am 11:41 Cloudy with Light Snow 25 -4 18 -8 74 74 SW 8 13 30.21 1023 5 8 0.01 0.25
11:52 am 11:52 Cloudy with Light Snow 25 -3.9 17 -8.3 72 72 WSW 10 17 30.16 1022 6 10 0.01 0.25
12:10 pm 12:10 Cloudy 27 -3 18 -8 69 69 W 9 15 30.18 1022 10 16 0.00 0.00
12:40 pm 12:40 Cloudy 27 -3 18 -8 69 69 W 9 15 30.18 1022 10 16 0.00 0.03
12:52 pm 12:52 Cloudy 27 -2.8 18 -7.8 69 69 WSW 8 13 30.14 1021 10 16 0.00 0.03
1:52 pm 13:52 Cloudy with Light Snow 27 -2.8 17 -8.3 66 66 W 14 22 30.12 1020 9 14 0.00 0.03
2:35 pm 14:35 Cloudy with Light Snow 28 -2 18 -8 64 64 W 16 26 30.15 1021 9 14 0.00 0.03
2:52 pm 14:52 Cloudy 27 -2.8 17 -8.3 66 66 W 18 30 30.11 1020 10 16 0.00 0.03
3:52 pm 15:52 Cloudy 28 -2.2 17 -8.3 63 63 W 16 26 30.10 1019 10 16 0.00 0.00
4:52 pm 16:52 Cloudy 28 -2.2 17 -8.3 63 63 WNW 17 28 30.12 1020 10 16 0.00 0.00
5:52 pm 17:52 Cloudy with Light Snow 27 -2.8 18 -7.8 69 69 W 16 26 30.14 1021 3 5 0.00 0.03
6:52 pm 18:52 Cloudy 26 -3.3 15 -9.4 63 63 WNW 16 26 30.17 1022 10 16 0.00 0.03
7:52 pm 19:52 Windy with Snow Likely 24 -4.4 16 -8.9 71 71 WNW 26 43 30.21 1023 3 5 0.00 0.03
8:52 pm 20:52 Mostly Cloudy 22 -5.6 11 -11.7 63 63 WNW 16 26 30.24 1024 10 16 0.00 0.03
9:52 pm 21:52 Mostly Cloudy 22 -5.6 9 -12.8 57 57 WNW 17 28 30.26 1025 10 16 0.00 0.03
10:52 pm 22:52 Cloudy 20 -6.7 11 -11.7 68 68 NW 21 33 30.29 1026 10 16 0.00 0.03
11:52 pm 23:52 Cloudy 20 -6.7 8 -13.3 60 60 NW 16 26 30.32 1027 10 16 0.00 0.00

Powered by AerisWeather